Weather in Dubna

Russia / Tula Oblast     54°09′20″N   36°57′37″E
temp.,
°C
wind,
m/s
gust,
m/s
humid.,
%
clouds,
%
prec.,
mm/h
press.,
hPa
HPBL,
m
18 august, thu
thu1800:00+18e3474100 0.0 101764
03:00+19ene3756100 0.0 1017159
06:00+18ene41067100 0.3 1017197
09:00+20ene5115994 0.3 1017352
12:00+25ene794377 0.0 1017752
15:00+27ene783857 0.0 10171082
18:00+24ene51147100 0.0 1017585
21:00+22ene5104417 0.0 1017309
19 august, fri
fri1900:00+21ene51350100 0.0 1018416
03:00+20ene51157100 0.0 1018429
06:00+16ene51066100 0.0 1019278
09:00+20e81155100 0.0 1021871
12:00+16e81391100 0.9 1022753
15:00+17e71285100 0.9 1023774
18:00+17e71483100 0.1 1023689
21:00+17e51377100 0.1 1023709
20 august, sat
sat2000:00+17e61481100 0.0 1023860
03:00+15e71587100 0.4 1023677
06:00+16ese71787100 0.0 1022781
09:00+19ese91566100 0.0 1022866
12:00+20se61158100 0.1 1023760
15:00+25se6938100 0.1 10221897
18:00+23ese81243100 0.0 10221032
21:00+22e81536100 0.0 1022748
21 august, sun
sun2100:00+19ene4845100 0.0 1022202
03:00+18e3943100 0.0 1022260
06:00+19ese61329100 0.0 1022414
09:00+19ese51138100 0.0 1022455
12:00+22ese6103596 0.0 1022587
15:00+25se7102999 0.0 10221119
18:00+22se61234100 0.0 1021572
21:00+20ese41335100 0.0 1022302
22 august, mon
mon2200:00+19ese31034100 0.0 1021214
03:00+19e41033100 0.0 1022212
06:00+17ese41137100 0.0 1022182
09:00+21ese51139100 0.0 1023366
12:00+27se6931100 0.0 1022984
15:00+29se682676 0.0 10212312
18:00+27ese483828 0.0 1021256
21:00+21e464612 0.0 102277